Location: Prestice
(49.5670°N, 13.3170°E)
Time: 19:19:11
(UTC+02:00)

ISS - Visible Passes

Search period start: 19 April 2025 00:00
Search period end: 29 April 2025 00:00
Orbit: 414 x 421 km, 51.6° (Epoch: 19 April)

Date Brightness Start Highest point End Pass type
(mag) Time Alt. Az. Time Alt. Az. Time Alt. Az.
19 Apr -1.0 05:19:50 10° SSE 05:20:53 11° SE 05:21:56 10° ESE visible
21 Apr -2.0 05:18:14 10° SSW 05:21:00 24° SE 05:23:46 10° E visible
22 Apr -1.5 04:31:07 11° S 04:33:00 16° SE 04:35:12 10° E visible
23 Apr -1.1 03:44:46 11° SE 03:45:02 11° SE 03:45:51 10° ESE visible
23 Apr -3.2 05:17:55 10° SW 05:21:10 49° SSE 05:24:25 10° ENE visible
24 Apr -2.7 04:31:15 20° SSW 04:33:01 34° SSE 04:36:05 10° E visible
25 Apr -2.2 03:44:45 23° SSE 03:44:53 23° SE 03:47:37 10° E visible
26 Apr -1.1 02:58:10 13° ESE 02:58:10 13° ESE 02:58:53 10° E visible
26 Apr -3.7 04:31:04 22° SW 04:33:04 68° SSE 04:36:24 10° ENE visible
27 Apr -3.4 03:44:25 45° S 03:44:47 47° SSE 03:48:01 10° ENE visible
28 Apr -2.0 02:57:42 25° ESE 02:57:42 25° ESE 02:59:34 10° E visible
28 Apr -3.7 04:30:36 16° W 04:33:06 75° NNW 04:36:28 10° ENE visible
